7 * 24
多渠道服务支持
STARLINK-37336(NORAD编号100031)是美国太空探索技术公司(SpaceX)星链低轨通信星座的组成卫星,归属Starlink V2 mini迭代批次。该卫星搭载猎鹰9号火箭发射入轨,运行于近地轨道,核心用途为提供全球覆盖的卫星宽带通信服务,部分同批次卫星支持手机直连上网功能,可实现文本、语音及数据传输。 截至2026年7月,SpaceX已累计发射超1.19万颗星链卫星,超1万颗在轨运行,该卫星作为星链组网的节点之一,为全球偏远地区、应急通信场景提供网络支撑,是星链实现全球无缝覆盖部署的组成部分。
美国
(US)
| 数据来源 | 国际轨道数据 |
| 星历时间: | 2026-09-11T07:23:43+0800 5小时前 查看轨道信息 |
| 半长轴: | 6840.785km |
| 偏心率: | 0.000169 |
| 轨道倾角: | 53.159° |
| 近地点辐角 | 64.379° |
| 升交点赤经 | 42.567° |
| 平近点角 | 295.739° |
| 近地点: | 461.491km |
| 远地点: | 463.805km |
| 周期: | 93.847分钟 |
| 每日圈数: | 15.344186 |